Location: Laterina
(43.5167°N, 11.7167°E)
Time: 17:05:02
(UTC+00:00)

CREW DRAGON DEMO-1 DEB - Pass Details

Date: 24 September 2020
Orbit: 362 x 365 km, 51.6° (Epoch: 20 October)

Event Time Altitude Azimuth Distance (km) Brightness Sun altitude
Rises 18:36:13 0° 303° (WNW) 2,200 8.1 -17.0°
Reaches altitude 10° 18:38:16 10° 307° (NW) 1,351 6.7 -17.3°
Maximum altitude 18:41:16 65° 30° (NNE) 403 2.8 -17.8°
Enters shadow 18:41:24 64° 50° (NE) 407 2.7 -17.9°
